YU7OR-2 Weather Reports


Display with metric or nautical units.
time (UTC)temp
F
wind
direction
speed
MPH
gust
MPH
rain 1hr
in
rain 24hr
in
rain mn
in
humidity
%
barometer
mb
20260504174508 72 100 0.0 2.0 0.00 0.00 0.00 45 1013.3
20260504174048 72 0.0 0.0 0.00 0.00 0.00 44 1013.0
20260504173638 72 0.0 0.0 0.00 0.00 0.00 44 1013.0
20260504173233 73 0.0 0.0 0.00 0.00 0.00 45 1013.0
20260504172758 74 0.0 0.0 0.00 0.00 0.00 45 1012.9
20260504172358 74 0.0 0.0 0.00 0.00 0.00 45 1012.9
20260504171918 74 99 0.0 2.0 0.00 0.00 0.00 44 1013.2
20260504171443 75 110 0.0 2.0 0.00 0.00 0.00 45 1013.0
20260504171033 75 101 0.0 2.0 0.00 0.00 0.00 45 1013.1
20260504170533 75 0.0 0.0 0.00 0.00 0.00 45 1013.1
20260504170118 75 0.0 0.0 0.00 0.00 0.00 45 1013.1
20260504160253 77 98 0.0 8.0 0.00 0.00 0.00 44 1013.4
20260504150913 77 72 0.0 5.0 0.00 0.00 0.00 44 1013.8
20260504150418 77 68 0.0 8.0 0.00 0.00 0.00 44 1013.9
20260504140928 77 123 0.0 2.0 0.00 0.00 0.00 43 1014.4
20260504140513 77 68 0.0 8.0 0.00 0.00 0.00 44 1014.6
20260504130658 76 136 0.0 8.0 0.00 0.00 0.00 44 1015.0
20260504130228 76 67 0.0 8.0 0.00 0.00 0.00 44 1015.2
20260504110538 75 69 0.0 10.0 0.00 0.00 0.00 44 1016.4
20260504110135 75 69 0.0 10.0 0.00 0.00 0.00 44 1016.4
20260504100608 73 71 0.0 8.0 0.00 0.00 0.00 46 1017.0
20260504100148 73 67 0.0 10.0 0.00 0.00 0.00 46 1017.0
20260504081653 70 125 0.0 5.0 0.00 0.00 0.00 46 1017.4
20260504081213 69 68 0.0 8.0 0.00 0.00 0.00 46 1017.5
20260504080758 69 119 0.0 5.0 0.00 0.00 0.00 47 1017.5
20260504080318 69 98 0.0 5.0 0.00 0.00 0.00 46 1017.6
20260504070353 66 96 0.0 5.0 0.00 0.00 0.00 48 1017.6
20260504060148 60 0.0 0.0 0.00 0.00 0.00 48 1017.9
20260504050653 56 0.0 0.0 0.00 0.00 0.00 53 1017.7
20260504050243 55 0.0 0.0 0.00 0.00 0.00 54 1017.5
20260504045758 54 0.0 0.0 0.00 0.00 0.00 54 1017.4
20260504045258 53 0.0 0.0 0.00 0.00 0.00 56 1017.3
20260504044833 53 0.0 0.0 0.00 0.00 0.00 58 1017.1
20260504044354 52 0.0 0.0 0.00 0.00 0.00 56 1017.0
20260504043858 52 0.0 0.0 0.00 0.00 0.00 54 1016.8
20260504043423 52 0.0 0.0 0.00 0.00 0.00 55 1016.6
20260504042958 51 0.0 0.0 0.00 0.00 0.00 55 1016.3
20260504042518 50 0.0 0.0 0.00 0.00 0.00 54 1016.3
20260504042023 50 0.0 0.0 0.00 0.00 0.00 56 1015.9
20260504041603 49 0.0 0.0 0.00 0.00 0.00 58 1015.8
20260504041158 49 0.0 0.0 0.00 0.00 0.00 58 1015.8
20260504040730 48 0.0 0.0 0.00 0.00 0.00 59 1015.9
20260504040313 48 0.0 0.0 0.00 0.00 0.00 61 1015.6
20260504035848 48 0.0 0.0 0.00 0.00 0.00 62 1015.6
20260504035413 48 0.0 0.0 0.00 0.00 0.00 62 1015.4
20260504034923 48 0.0 0.0 0.00 0.00 0.00 63 1015.5
20260504034423 48 0.0 0.0 0.00 0.00 0.00 63 1015.6
20260504033953 48 0.0 0.0 0.00 0.00 0.00 63 1015.2
20260504033533 48 0.0 0.0 0.00 0.00 0.00 61 1015.2
20260504033048 48 0.0 0.0 0.00 0.00 0.00 61 1015.6
20260504032548 48 0.0 0.0 0.00 0.00 0.00 62 1015.5
20260504032103 48 0.0 0.0 0.00 0.00 0.00 64 1015.2
20260504031648 48 0.0 0.0 0.00 0.00 0.00 64 1015.2
20260504031233 48 0.0 0.0 0.00 0.00 0.00 63 1015.5
20260504030758 48 0.0 0.0 0.00 0.00 0.00 64 1015.4
20260504030328 49 0.0 0.0 0.00 0.00 0.00 63 1015.4
20260504025923 49 0.0 0.0 0.00 0.00 0.00 61 1015.4
20260504025523 49 0.0 0.0 0.00 0.00 0.00 60 1015.6
20260504025043 49 0.0 0.0 0.00 0.00 0.00 60 1015.5
20260504024643 49 0.0 0.0 0.00 0.00 0.00 60 1015.5
20260504024143 49 0.0 0.0 0.00 0.00 0.00 60 1015.3
20260504023728 50 0.0 0.0 0.00 0.00 0.00 60 1015.2
20260504023248 50 0.0 0.0 0.00 0.00 0.00 60 1015.5
20260504022748 50 0.0 0.0 0.00 0.00 0.00 59 1015.4
20260504022258 50 0.0 0.0 0.00 0.00 0.00 58 1015.3
20260504021843 50 0.0 0.0 0.00 0.00 0.00 58 1015.4
20260504021348 50 0.0 0.0 0.00 0.00 0.00 58 1015.4
20260504020938 50 0.0 0.0 0.00 0.00 0.00 58 1015.5
20260504020513 50 0.0 0.0 0.00 0.00 0.00 58 1015.5
20260504020048 50 0.0 0.0 0.00 0.00 0.00 58 1015.5
20260504015608 50 0.0 0.0 0.00 0.00 0.00 58 1015.5
20260504015148 50 0.0 0.0 0.00 0.00 0.00 58 1015.5
20260504014653 50 0.0 0.0 0.00 0.00 0.00 59 1015.5
20260504014243 50 0.0 0.0 0.00 0.00 0.00 59 1015.4
20260504013839 50 0.0 0.0 0.00 0.00 0.00 60 1015.4
20260504013418 50 0.0 0.0 0.00 0.00 0.00 58 1015.5
20260504012953 50 0.0 0.0 0.00 0.00 0.00 58 1015.4
20260504012514 50 0.0 0.0 0.00 0.00 0.00 58 1015.5
20260504012053 50 89 0.0 2.0 0.00 0.00 0.00 58 1015.6
20260504011603 50 75 0.0 2.0 0.00 0.00 0.00 60 1015.6
20260504011143 50 75 0.0 2.0 0.00 0.00 0.00 60 1015.6
20260504010728 50 0.0 0.0 0.00 0.00 0.00 58 1015.7
20260504010303 50 0.0 0.0 0.00 0.00 0.00 59 1015.7
20260504005853 50 0.0 0.0 0.00 0.00 0.00 59 1015.7
20260504005423 50 0.0 0.0 0.00 0.00 0.00 58 1015.6
20260504005023 50 0.0 0.0 0.00 0.00 0.00 58 1015.6
20260504004543 50 0.0 0.0 0.00 0.00 0.00 59 1015.7
20260504004058 50 0.0 0.0 0.00 0.00 0.00 59 1015.6
20260504003615 50 0.0 0.0 0.00 0.00 0.00 59 1015.6
20260504003118 50 0.0 0.0 0.00 0.00 0.00 59 1015.7
20260504002713 50 0.0 0.0 0.00 0.00 0.00 59 1015.7
20260504002243 50 0.0 0.0 0.00 0.00 0.00 60 1015.9
20260504001828 50 0.0 0.0 0.00 0.00 0.00 60 1015.7
20260504001428 50 0.0 0.0 0.00 0.00 0.00 59 1015.8
20260504001028 49 0.0 0.0 0.00 0.00 0.00 58 1015.8
20260504000608 49 0.0 0.0 0.00 0.00 0.00 58 1015.8
20260504000158 49 0.0 0.0 0.00 0.00 0.00 60 1015.9
20260503235738 49 0.0 0.0 0.00 0.00 0.00 60 1015.9
20260503235243 50 0.0 0.0 0.00 0.00 0.00 59 1016.1
20260503234823 50 0.0 0.0 0.00 0.00 0.00 59 1016.1
20260503234343 50 0.0 0.0 0.00 0.00 0.00 60 1016.1
20260503233853 50 0.0 0.0 0.00 0.00 0.00 59 1016.1
20260503233403 50 0.0 0.0 0.00 0.00 0.00 59 1016.0
20260503232923 51 0.0 0.0 0.00 0.00 0.00 58 1016.1
20260503232503 51 0.0 0.0 0.00 0.00 0.00 57 1016.0
20260503232003 51 0.0 0.0 0.00 0.00 0.00 57 1016.1
20260503231503 51 0.0 0.0 0.00 0.00 0.00 56 1016.3
20260503231048 51 0.0 0.0 0.00 0.00 0.00 57 1016.3
20260503230558 51 0.0 0.0 0.00 0.00 0.00 57 1016.3
20260503230123 51 0.0 0.0 0.00 0.00 0.00 57 1016.3
20260503225648 52 0.0 0.0 0.00 0.00 0.00 57 1016.3
20260503225213 52 0.0 0.0 0.00 0.00 0.00 56 1016.4
20260503224737 52 0.0 0.0 0.00 0.00 0.00 57 1016.3
20260503224323 52 0.0 0.0 0.00 0.00 0.00 55 1016.3
20260503223838 52 0.0 0.0 0.00 0.00 0.00 55 1016.3
20260503223408 52 0.0 0.0 0.00 0.00 0.00 54 1016.2
20260503222913 53 93 0.0 2.0 0.00 0.00 0.00 54 1016.1
20260503222453 53 108 0.0 2.0 0.00 0.00 0.00 55 1016.3
20260503222038 53 0.0 0.0 0.00 0.00 0.00 55 1016.3
20260503221549 53 90 0.0 2.0 0.00 0.00 0.00 55 1016.1
20260503221138 53 90 0.0 2.0 0.00 0.00 0.00 55 1016.1
20260503220723 53 0.0 0.0 0.00 0.00 0.00 54 1016.3
20260503220313 54 0.0 0.0 0.00 0.00 0.00 53 1016.3
20260503215823 54 0.0 0.0 0.00 0.00 0.00 53 1016.4
20260503215358 54 93 0.0 2.0 0.00 0.00 0.00 54 1016.3
20260503214908 54 0.0 0.0 0.00 0.00 0.00 54 1016.3
20260503214423 54 0.0 0.0 0.00 0.00 0.00 53 1016.1
20260503213943 54 0.0 0.0 0.00 0.00 0.00 53 1016.3
20260503213538 55 0.0 0.0 0.00 0.00 0.00 53 1016.1
20260503213103 55 0.0 0.0 0.00 0.00 0.00 53 1016.3
20260503212603 55 0.0 0.0 0.00 0.00 0.00 53 1016.3
20260503212133 55 0.0 0.0 0.00 0.00 0.00 53 1016.3
20260503211703 55 0.0 0.0 0.00 0.00 0.00 53 1016.2
20260503211235 55 0.0 0.0 0.00 0.00 0.00 53 1016.2
20260503210803 54 0.0 0.0 0.00 0.00 0.00 54 1016.3
20260503210313 54 0.0 0.0 0.00 0.00 0.00 55 1016.3
20260503205908 54 0.0 0.0 0.00 0.00 0.00 53 1016.3
20260503205443 54 0.0 0.0 0.00 0.00 0.00 53 1016.3
20260503205003 54 0.0 0.0 0.00 0.00 0.00 53 1016.3
20260503204539 54 0.0 0.0 0.00 0.00 0.00 53 1016.3
20260503204118 54 0.0 0.0 0.00 0.00 0.00 53 1016.3
20260503203648 55 0.0 0.0 0.00 0.00 0.00 53 1016.3
20260503203208 55 0.0 0.0 0.00 0.00 0.00 53 1016.3
20260503202713 55 0.0 0.0 0.00 0.00 0.00 53 1016.3
20260503202238 56 0.0 0.0 0.00 0.00 0.00 53 1016.3
20260503201758 56 0.0 0.0 0.00 0.00 0.00 53 1016.4
20260503201348 56 0.0 0.0 0.00 0.00 0.00 52 1016.3
20260503200903 56 0.0 0.0 0.00 0.00 0.00 54 1016.3
20260503200428 56 0.0 0.0 0.00 0.00 0.00 55 1016.3
20260503200013 57 0.0 0.0 0.00 0.00 0.00 55 1016.3
20260503195513 57 0.0 0.0 0.00 0.00 0.00 55 1016.3
20260503195013 56 0.0 0.0 0.00 0.00 0.00 55 1016.4
20260503194553 56 0.0 0.0 0.00 0.00 0.00 55 1016.5
20260503194108 56 0.0 0.0 0.00 0.00 0.00 55 1016.3
20260503193708 56 0.0 0.0 0.00 0.00 0.00 55 1016.3
20260503193223 57 0.0 0.0 0.00 0.00 0.00 54 1016.3
20260503192758 57 0.0 0.0 0.00 0.00 0.00 54 1016.3
20260503192305 57 0.0 0.0 0.00 0.00 0.00 54 1016.3
20260503191823 57 0.0 0.0 0.00 0.00 0.00 54 1016.3
20260503191413 58 0.0 0.0 0.00 0.00 0.00 53 1016.3
20260503191003 58 0.0 0.0 0.00 0.00 0.00 52 1016.1
20260503190533 58 0.0 0.0 0.00 0.00 0.00 51 1016.2
20260503190118 58 0.0 0.0 0.00 0.00 0.00 51 1016.2
20260503185623 58 0.0 0.0 0.00 0.00 0.00 51 1016.2
20260503185158 58 0.0 0.0 0.00 0.00 0.00 51 1016.2
20260503184717 59 0.0 0.0 0.00 0.00 0.00 50 1016.3
20260503184238 59 87 0.0 2.0 0.00 0.00 0.00 50 1016.1
20260503183823 60 0.0 0.0 0.00 0.00 0.00 52 1016.1
20260503183403 60 0.0 0.0 0.00 0.00 0.00 55 1016.1
20260503182948 60 0.0 0.0 0.00 0.00 0.00 55 1016.1
20260503182504 60 0.0 0.0 0.00 0.00 0.00 54 1016.0
20260503182023 61 0.0 0.0 0.00 0.00 0.00 54 1016.0
20260503181534 61 0.0 0.0 0.00 0.00 0.00 54 1016.0
20260503181115 61 0.0 0.0 0.00 0.00 0.00 53 1015.9
20260503180658 61 0.0 0.0 0.00 0.00 0.00 53 1015.9
20260503180208 62 0.0 0.0 0.00 0.00 0.00 52 1016.0
20260503175713 62 0.0 0.0 0.00 0.00 0.00 50 1015.9
20260503175223 63 126 0.0 2.0 0.00 0.00 0.00 48 1015.9